GW3035 Weather Reports


time (UTC)temp
C
wind
direction
speed
KPH
gust
KPH
rain 1hr
cm
rain 24hr
cm
rain mn
cm
humidity
%
barometer
mb
20260505181029 7 0 0.0 1.6 0.15 3.35 0.00 96 1011.9
20260505180533 7 0 1.6 6.4 0.08 3.28 0.00 96 1012.0
20260505180033 7 0 4.8 4.8 0.08 3.28 0.00 96 1012.1
20260505175532 7 0 3.2 4.8 0.08 3.33 0.00 96 1012.2
20260505175030 7 0 0.0 4.8 0.08 3.35 0.00 96 1012.0
20260505174532 7 0 1.6 4.8 0.08 3.38 0.00 96 1011.9
20260505174039 7 0 0.0 3.2 0.08 3.38 0.00 95 1011.9
20260505173529 7 0 0.0 12.9 0.08 3.40 0.00 95 1012.0
20260505173033 7 0 3.2 6.4 0.05 3.38 0.00 95 1011.9
20260505172533 7 0 0.0 3.2 0.03 3.38 0.00 95 1011.9
20260505172030 7 0 0.0 4.8 0.03 3.38 0.00 95 1011.8
20260505171536 7 0 3.2 4.8 0.00 3.35 0.00 95 1011.7
20260505171030 7 0 0.0 4.8 0.03 3.35 0.00 95 1011.4
20260505170532 7 0 1.6 4.8 0.05 3.38 0.00 95 1011.3
20260505170032 7 0 0.0 1.6 0.08 3.38 0.00 95 1011.4
20260505165532 7 0 0.0 3.2 0.10 3.38 0.00 95 1011.4
20260505165033 7 0 0.0 1.6 0.10 3.38 0.00 95 1011.6
20260505164532 7 0 1.6 3.2 0.13 3.38 0.00 95 1011.5
20260505164030 8 0 0.0 4.8 0.13 3.40 0.00 95 1011.4
20260505163529 8 0 0.0 4.8 0.13 3.40 0.00 95 1011.2
20260505163033 8 0 1.6 3.2 0.13 3.40 0.00 95 1011.4
20260505162529 8 0 3.2 3.2 0.13 3.43 0.00 96 1011.5
20260505162033 7 0 1.6 1.6 0.10 3.40 0.00 95 1011.4
20260505161532 7 0 0.0 1.6 0.10 3.43 0.00 95 1011.5
20260505161030 7 0 0.0 1.6 0.08 3.40 0.00 95 1011.7
20260505160532 7 0 0.0 1.6 0.08 3.38 0.00 95 1011.7
20260505153036 8 0 0.0 4.8 0.00 3.33 0.00 94 1011.5
20260505152533 8 0 0.0 6.4 0.00 3.33 0.00 93 1011.8
20260505152029 8 0 3.2 4.8 0.00 3.33 0.00 93 1011.5
20260505151533 8 0 1.6 6.4 0.00 3.33 0.00 93 1011.4
20260505151030 8 0 4.8 6.4 0.00 3.33 0.00 93 1011.4
20260505150538 8 0 1.6 3.2 0.00 3.33 0.00 94 1011.5
20260505140533 7 0 0.0 4.8 0.08 3.33 0.00 93 1011.8
20260505125029 7 0 3.2 4.8 0.03 3.23 0.00 92 1011.8
20260505124530 7 0 3.2 3.2 0.03 3.23 0.00 92 1011.8
20260505124030 7 0 0.0 3.2 0.00 3.20 0.00 92 1011.8
20260505123530 7 0 0.0 4.8 0.00 3.20 0.00 92 1011.7
20260505123033 7 0 1.6 3.2 0.00 3.20 0.00 92 1011.7
20260505122533 7 0 1.6 3.2 0.00 3.20 0.00 92 1011.7
20260505122033 7 0 1.6 4.8 0.00 3.17 0.00 92 1011.7
20260505121529 7 0 3.2 3.2 0.00 3.17 0.00 91 1011.8
20260505121033 7 0 3.2 4.8 0.00 3.17 0.00 92 1011.7
20260505120533 7 0 1.6 4.8 0.00 3.17 0.00 92 1011.7
20260505120035 7 0 1.6 1.6 0.00 3.17 0.00 92 1011.6
20260505115532 7 0 1.6 1.6 0.00 3.17 0.00 91 1011.8
20260505115029 7 0 0.0 1.6 0.00 3.17 0.00 91 1011.7
20260505114535 7 0 0.0 3.2 0.00 3.17 0.00 92 1011.8
20260505114029 7 0 1.6 4.8 0.00 3.17 0.00 92 1011.6
20260505113530 7 0 3.2 4.8 0.00 3.17 0.00 92 1011.6
20260505113029 7 0 1.6 3.2 0.00 3.17 0.00 91 1011.6
20260505112535 7 0 1.6 3.2 0.00 3.17 0.00 91 1011.7
20260505112029 7 0 0.0 3.2 0.00 3.17 0.00 92 1011.7
20260505111533 7 0 0.0 3.2 0.00 3.17 0.00 92 1011.8
20260505111029 7 0 1.6 3.2 0.00 3.17 0.00 92 1011.8
20260505110532 7 0 0.0 1.6 0.00 3.17 0.00 92 1012.0
20260505102029 6 0 0.0 3.2 0.00 3.17 0.00 94 1012.0
20260505101532 6 0 0.0 3.2 0.00 3.17 0.00 94 1011.9
20260505101029 6 0 1.6 4.8 0.00 3.17 0.00 94 1011.9
20260505100529 6 0 0.0 3.2 0.00 3.17 0.00 94 1011.8
20260505100029 6 0 0.0 4.8 0.03 3.17 0.00 94 1011.8
20260505095532 6 0 0.0 3.2 0.00 3.15 0.00 94 1011.9
20260505095033 6 0 1.6 1.6 0.00 3.15 0.00 94 1011.9
20260505094536 6 0 1.6 3.2 0.00 3.15 0.00 94 1011.9
20260505094032 6 0 3.2 4.8 0.00 3.15 0.00 94 1011.8
20260505093535 6 0 3.2 4.8 0.00 3.15 0.00 94 1011.8
20260505093029 6 0 1.6 4.8 0.00 3.15 0.00 94 1011.6
20260505092535 6 0 1.6 8.0 0.00 3.15 0.00 94 1011.6
20260505092029 6 0 4.8 8.0 0.00 3.15 0.00 94 1011.5
20260505091529 7 0 1.6 6.4 0.00 3.15 0.00 95 1011.6
20260505091030 7 0 3.2 4.8 0.00 3.15 0.00 95 1011.5
20260505090532 6 0 1.6 4.8 0.00 3.15 0.00 95 1011.5
20260505090036 6 0 3.2 4.8 0.00 3.12 0.00 95 1011.5
20260505085532 6 0 4.8 4.8 0.00 3.12 0.00 95 1011.5
20260505085035 6 0 0.0 4.8 0.00 3.12 0.00 95 1011.4
20260505084535 6 0 0.0 3.2 0.00 3.12 0.00 95 1011.4
20260505084035 6 0 0.0 4.8 0.00 3.12 0.00 95 1011.4
20260505083533 6 0 0.0 4.8 0.00 3.12 0.00 95 1011.4
20260505083033 6 0 3.2 6.4 0.00 3.12 0.00 95 1011.3
20260505082539 6 0 3.2 6.4 0.00 3.12 0.00 96 1011.3
20260505082032 6 0 1.6 3.2 0.00 3.12 0.00 96 1011.1
20260505081529 6 0 1.6 3.2 0.00 3.12 0.00 96 1011.2
20260505081030 6 0 1.6 3.2 0.00 3.12 0.00 96 1011.3
20260505080529 6 0 1.6 4.8 0.00 3.12 0.00 96 1011.3
20260505080029 6 0 1.6 4.8 0.00 3.12 0.00 96 1011.2
20260505075532 6 0 1.6 1.6 0.00 3.12 0.00 96 1011.3
20260505075033 6 0 1.6 3.2 0.00 3.12 0.00 96 1011.4
20260505074529 6 0 0.0 3.2 0.00 3.12 0.00 96 1011.3
20260505074035 6 0 0.0 1.6 0.00 3.12 0.00 96 1011.4
20260505073530 6 0 0.0 3.2 0.00 3.12 0.00 96 1011.4
20260505073035 6 0 3.2 3.2 0.03 3.12 0.00 96 1011.4
20260505072538 6 0 3.2 3.2 0.08 3.12 0.00 96 1011.4
20260505072032 5 0 1.6 4.8 0.10 3.12 0.00 96 1011.4
20260505071538 5 0 1.6 1.6 0.10 3.12 0.00 96 1011.3
20260505071036 5 0 1.6 1.6 0.10 3.12 0.00 96 1011.2
20260505070530 5 0 0.0 1.6 0.10 3.12 0.00 96 1011.5
20260505070033 5 0 1.6 4.8 0.10 3.12 0.00 96 1011.4
20260505065529 6 0 1.6 4.8 0.10 3.12 0.00 96 1011.2
20260505065036 5 0 1.6 3.2 0.10 3.12 0.00 96 1011.2
20260505064532 5 0 1.6 1.6 0.10 3.12 0.00 96 1011.2
20260505064036 5 0 0.0 1.6 0.10 3.12 0.00 96 1011.2
20260505063532 5 0 0.0 0.0 0.08 3.10 0.00 96 1011.2
20260505063029 5 0 0.0 0.0 0.08 3.10 0.00 96 1011.3
20260505062532 5 0 0.0 1.6 0.03 3.05 0.00 96 1011.4
20260505062029 5 0 0.0 1.6 0.00 3.00 0.00 96 1011.4
20260505061530 5 0 0.0 1.6 0.00 3.00 0.00 96 1011.2
20260505061035 5 0 0.0 1.6 0.00 3.00 0.00 96 1011.2
20260505060529 5 0 0.0 1.6 0.00 3.00 0.00 96 1010.8
20260505060029 5 0 0.0 1.6 0.00 3.00 0.00 96 1010.9
20260505055535 5 0 0.0 1.6 0.00 3.00 0.00 96 1010.9
20260505055030 5 0 0.0 1.6 0.00 3.00 0.00 96 1011.0
20260505054536 5 0 0.0 1.6 0.00 3.00 0.00 96 1011.1
20260505054032 5 0 0.0 1.6 0.00 3.00 0.00 96 1011.0
20260505053533 5 0 0.0 1.6 0.00 3.00 0.00 96 1010.8
20260505053029 5 0 0.0 1.6 0.00 3.00 0.00 96 1010.8
20260505052533 5 0 0.0 1.6 0.00 3.00 0.00 96 1010.7
20260505052032 5 0 0.0 1.6 0.00 3.00 0.00 96 1010.8
20260505051533 5 0 0.0 1.6 0.00 3.00 0.00 96 1010.8
20260505051036 5 0 1.6 1.6 0.00 3.00 0.00 96 1010.7
20260505050529 5 0 0.0 0.0 0.00 3.00 0.00 96 1010.8
20260505041529 5 0 0.0 0.0 0.00 3.00 0.00 96 1011.3
20260505041035 5 0 0.0 0.0 0.00 3.00 0.00 96 1011.4
20260505040535 5 0 0.0 0.0 0.03 3.00 0.00 96 1011.3
20260505040036 5 0 0.0 0.0 0.05 3.00 0.00 96 1011.5
20260505035530 5 0 0.0 1.6 0.13 3.00 0.00 95 1011.5
20260505035032 5 0 0.0 1.6 0.20 3.00 0.00 95 1011.5
20260505034529 5 0 0.0 3.2 0.30 3.00 0.00 95 1011.7
20260505034029 5 0 1.6 1.6 0.38 3.00 0.00 95 1011.6
20260505033536 5 0 0.0 1.6 0.51 3.00 0.00 95 1011.6
20260505033033 5 0 0.0 1.6 0.58 3.00 0.00 95 1011.8
20260505032532 5 0 1.6 1.6 0.66 3.00 0.00 95 1011.8
20260505032032 5 0 0.0 1.6 0.71 2.97 0.00 95 1011.9
20260505031533 5 0 0.0 1.6 0.76 2.97 0.00 95 1012.0
20260505031033 5 0 0.0 3.2 0.81 2.97 0.00 95 1011.9
20260505030535 5 0 0.0 4.8 0.84 2.95 0.00 95 1011.8
20260505030032 5 0 3.2 4.8 0.89 2.92 0.00 95 1011.8
20260505025529 6 0 1.6 3.2 0.86 2.84 0.00 95 1012.4
20260505025029 6 0 0.0 0.0 0.84 2.77 0.00 95 1013.0
20260505024529 6 0 0.0 1.6 0.74 2.67 0.00 96 1013.0
20260505024032 6 0 0.0 1.6 0.74 2.59 0.00 96 1012.9
20260505023535 6 0 0.0 0.0 0.66 2.46 0.00 95 1013.2
20260505023032 6 0 0.0 1.6 0.64 2.39 0.00 95 1013.3
20260505022532 6 0 0.0 1.6 0.64 2.31 0.00 96 1013.4
20260505022029 6 0 0.0 1.6 0.64 2.24 0.00 96 1013.4
20260505021530 6 0 1.6 1.6 0.61 2.18 0.00 95 1013.4
20260505021040 6 0 1.6 1.6 0.64 2.16 0.00 95 1013.3
20260505020529 6 0 0.0 0.0 0.64 2.08 0.00 96 1013.2
20260505020029 6 0 0.0 1.6 0.61 2.03 0.00 95 1013.3
20260505015534 6 0 0.0 0.0 0.58 1.96 0.00 95 1013.4
20260505015029 6 0 0.0 0.0 0.56 1.93 0.00 95 1013.3
20260505014535 6 0 0.0 1.6 0.58 1.91 0.00 95 1013.4
20260505014032 6 0 0.0 0.0 0.56 1.85 0.00 95 1013.3
20260505013529 6 0 0.0 1.6 0.51 1.78 0.00 95 1013.2
20260505013032 6 0 0.0 1.6 0.46 1.73 0.00 95 1013.3
20260505012529 6 0 1.6 1.6 0.36 1.65 0.00 95 1013.5
20260505012032 6 0 0.0 0.0 0.36 1.60 0.00 95 1013.5
20260505011529 6 0 0.0 0.0 0.30 1.57 0.00 95 1013.6
20260505011029 6 0 0.0 0.0 0.25 1.50 0.00 95 1013.8
20260505010530 6 0 0.0 0.0 0.18 1.45 0.00 95 1013.8
20260505010032 6 0 0.0 1.6 0.15 1.40 0.00 95 1014.0
20260505005535 6 0 0.0 1.6 0.10 1.37 0.00 95 1014.0
20260505005033 6 0 0.0 1.6 0.08 1.35 0.00 95 1014.0
20260505004529 6 0 0.0 1.6 0.08 1.30 0.00 95 1014.2
20260505004032 6 0 0.0 1.6 0.05 1.30 0.00 95 1014.1
20260505003529 6 0 0.0 1.6 0.03 1.27 0.00 95 1014.2
20260505003033 6 0 1.6 3.2 0.03 1.27 0.00 95 1014.3
20260505002536 6 0 1.6 1.6 0.03 1.27 0.00 95 1014.4
20260505002029 6 0 1.6 4.8 0.03 1.24 0.00 95 1014.4
20260505001530 6 0 0.0 3.2 0.08 1.24 0.00 95 1014.5
20260505001033 6 0 0.0 0.0 0.10 1.24 0.00 95 1014.7
20260505000532 6 0 0.0 1.6 0.15 1.24 0.00 95 1014.7
20260505000032 6 0 0.0 1.6 0.18 1.24 0.00 95 1014.9
20260504235532 6 0 0.0 1.6 0.18 1.24 0.00 95 1014.8
20260504235029 6 0 0.0 1.6 0.23 1.24 0.00 95 1015.0
20260504234535 6 0 0.0 3.2 0.23 1.22 0.00 95 1015.1
20260504234032 6 0 1.6 3.2 0.25 1.22 0.00 95 1015.3
20260504233532 6 0 0.0 1.6 0.25 1.22 0.00 95 1015.4
20260504233030 6 0 1.6 1.6 0.28 1.22 0.00 95 1015.4
20260504232529 6 0 0.0 0.0 0.28 1.22 0.00 95 1015.5
20260504232036 6 0 0.0 1.6 0.30 1.22 0.00 95 1015.8
20260504231530 6 0 0.0 1.6 0.28 1.17 0.00 94 1015.7
20260504231032 6 0 1.6 1.6 0.28 1.12 0.00 94 1015.8
20260504230533 6 0 1.6 3.2 0.28 1.09 0.00 95 1016.0
20260504230032 6 0 0.0 0.0 0.28 1.07 0.00 95 1016.0
20260504225529 6 0 0.0 1.6 0.28 1.04 0.00 95 1016.1
20260504225035 6 0 0.0 1.6 0.25 1.02 0.00 95 1016.1
20260504224532 6 0 0.0 1.6 0.23 0.99 0.00 94 1016.2
20260504224029 6 0 1.6 3.2 0.20 0.97 0.00 94 1016.2
20260504223529 6 0 0.0 3.2 0.20 0.97 0.00 94 1016.3
20260504223035 6 0 0.0 3.2 0.18 0.94 0.00 94 1016.4
20260504222533 7 0 1.6 4.8 0.18 0.94 0.00 94 1016.3
20260504222033 7 0 0.0 4.8 0.13 0.89 0.00 94 1016.3
20260504221529 7 0 1.6 1.6 0.10 0.86 0.00 94 1016.5
20260504221029 7 0 0.0 1.6 0.08 0.84 0.00 94 1016.6
20260504220532 7 0 0.0 1.6 0.08 0.81 0.00 94 1016.6
20260504220029 7 0 0.0 1.6 0.05 0.79 0.00 94 1016.6
20260504215532 7 0 0.0 1.6 0.00 0.74 0.00 94 1016.9
20260504215029 7 0 0.0 0.0 0.00 0.74 0.00 94 1016.9
20260504214535 7 0 0.0 0.0 0.05 0.74 0.00 94 1016.9
20260504214029 7 0 0.0 1.6 0.08 0.74 0.00 94 1016.7
20260504213532 7 0 1.6 3.2 0.08 0.74 0.00 94 1016.9
20260504213032 7 0 0.0 0.0 0.08 0.74 0.00 94 1016.9
20260504212532 7 0 0.0 1.6 0.10 0.74 0.00 94 1017.0
20260504212032 7 0 0.0 1.6 0.10 0.74 0.00 93 1017.2
20260504211529 7 0 1.6 1.6 0.10 0.74 0.00 94 1017.1
20260504211038 7 0 0.0 1.6 0.10 0.74 0.00 94 1017.1
20260504210533 7 0 0.0 1.6 0.08 0.74 0.00 94 1017.1
20260504210029 7 0 0.0 1.6 0.10 0.74 0.00 94 1017.2
20260504205532 7 0 1.6 1.6 0.10 0.74 0.00 94 1017.2
20260504205029 7 0 1.6 1.6 0.13 0.74 0.00 93 1017.2
20260504204536 7 0 0.0 1.6 0.13 0.69 0.00 93 1017.2
20260504204038 7 0 0.0 1.6 0.15 0.66 0.00 93 1017.2
20260504203529 7 0 0.0 1.6 0.15 0.64 0.00 93 1017.1
20260504203038 7 0 0.0 1.6 0.20 0.64 0.00 93 1017.3
20260504202538 7 0 0.0 3.2 0.23 0.64 0.00 93 1017.5
20260504202029 7 0 0.0 1.6 0.25 0.64 0.00 93 1017.3
20260504201529 7 0 1.6 3.2 0.28 0.64 0.00 92 1017.3
20260504201032 7 0 0.0 3.2 0.28 0.64 0.00 92 1017.4
20260504200530 7 0 3.2 6.4 0.28 0.64 0.00 93 1017.3
20260504200032 7 0 0.0 1.6 0.28 0.61 0.00 93 1017.2
20260504195533 7 0 0.0 3.2 0.28 0.61 0.00 93 1017.2
20260504195029 7 0 0.0 1.6 0.25 0.58 0.00 93 1017.3
20260504194530 7 0 0.0 1.6 0.20 0.56 0.00 93 1017.3
20260504194035 7 0 0.0 1.6 0.18 0.51 0.00 93 1017.2
20260504193529 7 0 0.0 1.6 0.15 0.48 0.00 93 1017.3
20260504193032 7 0 1.6 1.6 0.10 0.43 0.00 93 1017.4
20260504192529 7 0 0.0 1.6 0.08 0.38 0.00 93 1017.5
20260504192029 7 0 0.0 0.0 0.05 0.36 0.00 93 1017.4
20260504191530 7 0 0.0 1.6 0.05 0.36 0.00 93 1017.4
20260504191033 7 0 0.0 1.6 0.05 0.33 0.00 93 1017.4
20260504190532 7 0 0.0 1.6 0.05 0.33 0.00 93 1017.2
20260504190029 7 0 1.6 1.6 0.08 0.33 0.00 92 1017.1
20260504185536 7 0 0.0 1.6 0.10 0.33 0.00 92 1017.1
20260504185029 7 0 1.6 1.6 0.13 0.33 0.00 92 1017.3
20260504184533 7 0 0.0 3.2 0.15 0.33 0.00 92 1017.0
20260504184030 7 0 0.0 1.6 0.18 0.33 0.00 92 1016.9
20260504183532 7 0 0.0 1.6 0.18 0.33 0.00 92 1017.0
20260504183035 8 0 0.0 1.6 0.18 0.30 0.00 92 1017.0
20260504182529 8 0 0.0 1.6 0.18 0.30 0.00 92 1017.0
20260504182029 8 0 3.2 3.2 0.18 0.30 0.00 92 1016.9
20260504181535 8 0 1.6 3.2 0.18 0.28 0.00 92 1016.8